• Join FlightAware (Why Join?)
  • Login
  • US Flag 
04:02PM EDT


 

Airport Tracker/Info


-or-


 

Live Flight TrackerFlight Track Log ✈ FLG4276 ✈ 21-Apr-2013 ✈ KDTW - KGRB

Flight Track Log - Related Links

Times and Time Zones

All times are in EDT time to prevent confusion due to time zone crossing. See the FLG4276 flight status page for this flight to view local times or setup timezone preferences in your user account.

Time Position Orientation Groundspeed Altitude Reporting Facility
EDT Latitude Longitude Course Direction KTS MPH feet Rate Location/Type
09:51PM 42.2017 -83.3567 North 167 192 1,500  Level FAA TRACON SMA TRACON (SMA)
09:52PM 42.1911 -83.3742 231° Southwest 177 204 2,400 2,400 Climbing FAA TRACON SMA TRACON (SMA)
09:52PM 42.1814 -83.3914 233° Southwest 195 224 3,100 2,700 Climbing FAA TRACON SMA TRACON (SMA)
09:52PM 42.1697 -83.4125 233° Southwest 196 226 4,200 1,920 Climbing FAA TRACON SMA TRACON (SMA)
09:53PM 42.1611 -83.4353 243° Southwest 244 281 4,400 1,620 Climbing FAA TRACON SMA TRACON (SMA)
09:53PM 42.1678 -83.4678 285° West 273 314 5,300 3,120 Climbing FAA TRACON SMA TRACON (SMA)
09:53PM 42.1831 -83.4975 305° West 271 312 6,500 3,420 Climbing FAA TRACON SMA TRACON (SMA)
09:54PM 42.4886 -83.3500 North  Level FlightAware Approximate
09:54PM 42.1964 -83.5233 305° West 271 312 7,600  Level FAA TRACON SMA TRACON (SMA)
09:54PM 42.2092 -83.5494 303° West 271 312 8,700 3,120 Climbing FAA TRACON SMA TRACON (SMA)
09:54PM 42.2219 -83.5758 303° West 270 311 9,700 2,700 Climbing FAA TRACON SMA TRACON (SMA)
09:55PM 42.5848 -83.3500 North  Level FlightAware Approximate
09:55PM 42.2453 -83.5989 324° Northwest 286 329 10,500  Level FAA TRACON SMA TRACON (SMA)
09:55PM 42.2706 -83.5997 359° North 306 352 10,800 900 Climbing FAA TRACON SMA TRACON (SMA)
09:55PM 42.2972 -83.5897 16° North 326 375 11,100 1,020 Climbing FAA TRACON SMA TRACON (SMA)
09:56PM 42.6809 -83.3500 North  Level FlightAware Approximate
09:56PM 42.3322 -83.5767 15° North 345 397 11,500  Level FAA TRACON SMA TRACON (SMA)
09:56PM 42.3619 -83.5661 15° North 359 413 11,800 1,020 Climbing FAA TRACON SMA TRACON (SMA)
09:56PM 42.4003 -83.5525 15° North 372 428 12,200 1,020 Climbing FAA TRACON SMA TRACON (SMA)
09:57PM 42.4314 -83.5406 16° North 389 448 12,500 1,020 Climbing FAA TRACON SMA TRACON (SMA)
09:57PM 42.4661 -83.5286 14° North 389 448 12,900 1,320 Climbing FAA TRACON SMA TRACON (SMA)
09:57PM 42.4992 -83.5164 15° North 398 458 13,400 1,800 Climbing FAA TRACON SMA TRACON (SMA)
09:58PM 42.5400 -83.5017 15° North 394 453 14,100 1,800 Climbing FAA TRACON SMA TRACON (SMA)
09:58PM 42.5725 -83.4900 15° North 393 452 14,600 1,500 Climbing FAA TRACON SMA TRACON (SMA)
09:58PM 42.6053 -83.4783 15° North 393 452 15,100 1,800 Climbing FAA TRACON SMA TRACON (SMA)
09:59PM 42.6464 -83.4636 15° North 395 455 15,800 1,740 Climbing FAA TRACON SMA TRACON (SMA)
09:59PM 42.6792 -83.4517 15° North 396 456 16,300 1,500 Climbing FAA TRACON SMA TRACON (SMA)
09:59PM 42.7119 -83.4397 15° North 397 457 16,800 1,500 Climbing FAA TRACON SMA TRACON (SMA)
10:00PM 42.7536 -83.4244 15° North 399 459 17,300 1,440 Climbing FAA TRACON SMA TRACON (SMA)
10:00PM 42.7872 -83.4122 15° North 403 464 17,800 600 Climbing FAA TRACON SMA TRACON (SMA)
10:00PM 42.8208 -83.4000 15° North 405 466 17,700 600 Descending FAA TRACON SMA TRACON (SMA)
10:01PM 42.8631 -83.3842 15° North 408 470 18,200 1,500 Climbing FAA TRACON SMA TRACON (SMA)
10:01PM 42.8972 -83.3722 14° North 408 470 18,700 1,380 Climbing FAA TRACON SMA TRACON (SMA)
10:01PM 42.9322 -83.3678 North 409 471 19,100 1,140 Climbing FAA TRACON SMA TRACON (SMA)
10:02PM 42.9758 -83.3667 North 409 471 19,500 1,140 Climbing FAA TRACON SMA TRACON (SMA)
10:02PM 43.0111 -83.3664 360° North 410 472 19,900 1,020 Climbing FAA TRACON SMA TRACON (SMA)
10:02PM 43.0464 -83.3667 360° North 412 474 20,200 1,020 Climbing FAA TRACON SMA TRACON (SMA)
10:03PM 43.0897 -83.3783 349° North 417 480 20,600 720 Climbing FAA TRACON SMA TRACON (SMA)
10:03PM 43.0981 -83.3819 342° North 407 468 20,700 120 Climbing FAA TRACON SMA TRACON (SMA)
10:03PM 43.0981 -83.3819 216° Southwest 407 468 20,700 1,020 Level FAA TRACON SMA TRACON (SMA)
10:04PM 43.2206 -83.4606 335° Northwest 396 456 21,800 1,200 Climbing Cleveland Center
10:05PM 43.3231 -83.5281 334° Northwest 408 470 22,800 960 Climbing Cleveland Center
10:07PM 43.5169 -83.7256 324° Northwest 408 470 25,000 960 Climbing Minneapolis Center
10:08PM 43.5558 -83.8692 291° West 402 463 26,000 480 Climbing Minneapolis Center
10:09PM 43.5919 -84.0161 289° West 405 466 26,000  Level Minneapolis Center
10:10PM 43.6378 -84.2022 289° West 423 487 26,000  Level Minneapolis Center
10:11PM 43.6783 -84.3603 290° West 433 498 26,000  Level Minneapolis Center
10:12PM 43.7175 -84.5169 289° West 435 501 26,000  Level Minneapolis Center
10:13PM 43.7561 -84.6761 289° West 437 503 26,000  Level Minneapolis Center
10:14PM 43.7956 -84.8339 289° West 437 503 26,000  Level Minneapolis Center
10:15PM 43.8347 -84.9908 289° West 436 502 26,000  Level Minneapolis Center
10:16PM 43.8722 -85.1511 288° West 438 504 26,000  Level Minneapolis Center
10:17PM 43.9114 -85.3100 289° West 438 504 26,000  Level Minneapolis Center
10:18PM 43.9492 -85.4694 288° West 438 504 26,000  Level Minneapolis Center
10:19PM 43.9872 -85.6289 288° West 438 504 26,000  Level Minneapolis Center
10:20PM 44.0328 -85.8222 288° West 440 506 26,000  Level Minneapolis Center
10:21PM 44.0700 -85.9831 288° West 441 507 26,000  Level Minneapolis Center
10:22PM 44.1075 -86.1419 288° West 437 503 26,000 -300 Level Minneapolis Center
10:23PM 44.1442 -86.3047 287° West 434 499 25,500 -1,380 Descending Minneapolis Center
10:24PM 44.1811 -86.4664 288° West 436 502 23,300 -2,160 Descending Minneapolis Center
10:26PM 44.2175 -86.6247 288° West 431 496 21,200 -2,100 Descending Minneapolis Center
10:27PM 44.2517 -86.7772 287° West 417 480 19,100 -1,920 Descending Minneapolis Center
10:28PM 44.2847 -86.9267 287° West 406 467 17,300 -1,920 Descending Minneapolis Center
10:29PM 44.3169 -87.0656 288° West 383 441 15,200 -1,680 Descending Minneapolis Center
10:30PM 44.3472 -87.2069 287° West 372 428 13,900 -1,260 Descending Minneapolis Center
10:31PM 44.3956 -87.3294 299° West 360 414 12,700 -1,380 Descending Minneapolis Center
10:32PM 44.4394 -87.4481 297° West 348 400 11,200 -1,380 Descending Minneapolis Center
10:33PM 44.4744 -87.5408 298° West 288 331 9,900 -1,380 Descending Minneapolis Center
10:34PM 44.5097 -87.6247 301° West 256 295 8,400 -1,680 Descending Minneapolis Center
10:35PM 44.5481 -87.7233 299° West 243 280 6,600 -1,620 Descending Minneapolis Center
10:36PM 44.5494 -87.8194 271° West 248 285 5,200 -1,440 Descending Minneapolis Center
10:37PM 44.5486 -87.9156 269° West 248 285 3,700 -1,380 Descending Minneapolis Center
10:38PM 44.5514 -87.9939 273° West 246 283 2,500 -1,200 Descending Minneapolis Center